Location: Arlington
(40.6323°N, 74.1651°W)
Time: 04:38:11
(UTC+00:00)

Cosmos 1633 - Pass Details

Date: 22 November 2019
Orbit: 465 x 482 km, 82.5° (Epoch: 07 December)

Event Time Altitude Azimuth Distance (km) Brightness Sun altitude
Rises 22:33:04 0° 344° (NNW) 2,550 6.2 -11.2°
Reaches altitude 10° 22:35:15 10° 337° (NNW) 1,663 5.4 -11.6°
Maximum altitude 22:38:39 39° 267° (W) 733 4.1 -12.2°
Drops below altitude 10° 22:42:01 10° 198° (SSW) 1,642 5.7 -12.9°
Sets 22:44:10 0° 190° (S) 2,512 6.5 -13.3°
